Regional Weather Roundup
Issued by NWS

Home | Current Version | Previous Version | Text Only | Print | Product List | Glossary Off
Versions: 1 2 3 4 5 6 7 8 9 10 11 12 13 14 15 16 17 18 19 20 21 22 23 24 25 26 27 28 29 30 31 32 33 34 35 36 37 38 39 40 41 42 43 44 45 46 47 48 49 50

000
ASUS44 KMEG 291910
RWRTN
TENNESSEE HOURLY STATE WEATHER ROUNDUP
NATIONAL WEATHER SERVICE MEMPHIS TN
200 PM CDT SUN MAY 29 2016

TNZ002-004-019-021-049-052-054-088>092-292000-
WEST TENNESSEE

CITY           SKY/WX    TMP DP  RH WIND       PRES   REMARKS
MEMPHIS INTL   MOSUNNY   88  68  51 SW8       30.10F HX  91
NWS MEMPHIS      N/A     87 N/A N/A MISG        N/A
JACKSON        MOSUNNY   86  67  52 VRB3      30.09F
DYERSBURG      MOSUNNY   86  66  51 SW5       30.08F
UNION CITY     MOSUNNY   84  70  61 N3        30.08S
PARIS          MOSUNNY   84  66  54 SW7       30.10S
LEXINGTON      MOSUNNY   88  66  48 VRB6      30.09F HX  90
$$

TNZ008-025-027-028-033-062-065-066-292000-
NORTH MIDDLE TENNESSEE

CITY           SKY/WX    TMP DP  RH WIND       PRES   REMARKS
NASHVILLE      PTSUNNY   90  64  42 SW8       30.09F HX  91
CLARKSVILLE    MOSUNNY   84  68  58 VRB5      30.08F
SMYRNA         SUNNY     88  67  49 S3        30.10F HX  91
COOKEVILLE     SUNNY     88  66  48 CALM      30.11F HX  90
CROSSVILLE     PTSUNNY   80  60  50 NE5       30.16F
$$

TNZ061-075-076-078-094-096-097-292000-
SOUTH MIDDLE TENNESSEE

CITY           SKY/WX    TMP DP  RH WIND       PRES   REMARKS
FAYETTEVILLE   MOSUNNY   86  64  48 W9        30.11F
TULLAHOMA      MOSUNNY   84  63  48 N7        30.13F
WINCHESTER     MOSUNNY   86  63  45 N5        30.12S
MCMINNVILLE    MOSUNNY   86  64  48 CALM      30.11F
COLUMBIA       PTSUNNY   86  68  54 W5        30.09F
SHELBYVILLE    MOSUNNY   90  66  45 VRB6      30.11F HX  92
$$

TNZ017-018-042-046-047-292000-
NORTHEAST TENNESSEE

CITY           SKY/WX    TMP DP  RH WIND       PRES   REMARKS
TRI CITIES     CLOUDY    81  57  43 CALM      30.14F
$$

TNZ012-013-036-069-073-074-292000-
CENTRAL EAST TENNESSEE

CITY           SKY/WX    TMP DP  RH WIND       PRES   REMARKS
KNOXVILLE      CLOUDY    82  64  54 E10       30.09F
OAK RIDGE      MOSUNNY   84  63  49 VRB3      30.11F
GATLINBURG     SUNNY     82  64  54 NE7       30.10F
$$

TNZ083-085-099-292000-
SOUTHEAST TENNESSEE

CITY           SKY/WX    TMP DP  RH WIND       PRES   REMARKS
CHATTANOOGA    PTSUNNY   88  60  38 N8        30.09F
$$

SKY/WX REPORTED AS FAIR MEANS FEW OR NO CLOUDS BELOW
12 THOUSAND FEET.





USA.gov is the U.S. government's official web portal to all federal, state and local government web resources and services.